Miscellaneous Local Product
Issued by NWS North Platte, NE

Home | Current Version | Previous Version | Text Only | Print | Product List | Glossary On
Versions: 1 2 3 4 5 6 7 8 9 10 11 12 13 14 15 16 17 18 19 20 21 22 23 24 25 26 27 28 29 30 31 32 33 34 35 36 37 38 39 40 41 42 43 44 45 46 47 48 49 50
380
AXUS43 KLBF 291710
MISLBF


WESTERN AND NORTH CENTRAL NEBRASKA HOURLY WEATHER ROUNDUP
NATIONAL WEATHER SERVICE NORTH PLATTE NE
1200 PM CDT SAT APR 29 2017

NOTE: "FAIR" INDICATES FEW OR NO CLOUDS BELOW 12,000 FEET WITH NO
SIGNIFICANT WEATHER AND/OR OBSTRUCTIONS TO VISIBILITY.

NOTE: STATIONS NOT REPORTING VARIABLES SUCH AS SKY/WEATHER OR
PRESSURE ARE PROVIDED BY RAWS AND APRS NETWORKS AND ARE NOT UNDER
NATIONAL WEATHER SERVICE QUALITY CONTROL.

...OBSERVATIONS IN AND NEAR THE EASTERN PANHANDLE OF NEBRASKA...

CITY           SKY/WX    TMP DP  RH WIND       PRES   REMARKS
PINE RIDGE     MOSUNNY   47  22  37 NE13      30.25F
CHADRON        MOSUNNY   44  24  45 VRB6      30.26F
ALLIANCE       CLOUDY    41  22  46 NE15      30.22F
SIDNEY         CLOUDY    38  23  55 N18G24    30.20R WCI  28
CRESCENT LAKE    N/A     41  20  43 NE13G20     N/A
$$

...OBSERVATIONS IN NORTHERN NEBRASKA AND FAR SOUTHERN SOUTH DAKOTA...

CITY           SKY/WX    TMP DP  RH WIND       PRES   REMARKS
WINNER         FAIR      51  20  29 NE15G22   30.25F
VALENTINE      CLOUDY    48  13  24 N14       30.22F
THEDFORD       CLOUDY    47  22  37 NE18G26   30.16F
AINSWORTH      CLOUDY    46  24  41 NE17G24   30.20F
O`NEILL        CLOUDY    48  24  38 NE16G22   30.17F
ORD            CLOUDY    45  27  49 NE18G28   30.13F
BROKEN BOW     CLOUDY    45  29  53 NE24G32   30.11F
VALENTINE NWR    N/A     43  20  39 NE9G16      N/A
BUTTE            N/A     46  25  43 N18G26      N/A
CHAMBERS         N/A     50  27  40 NE3G12      N/A
EWING            N/A     47  31  53 NE10G23     N/A
$$

...OBSERVATIONS IN SOUTHWEST NEBRASKA AND FAR NORTHEAST COLORADO...

CITY           SKY/WX    TMP DP  RH WIND       PRES   REMARKS
HOLYOKE        FAIR      41  28  60 NE20G25   30.17S
IMPERIAL       CLOUDY    40  27  59 N21G26    30.15R WCI  30
OGALLALA       CLOUDY    43  25  49 N18       30.18R
NORTH PLATTE   CLOUDY    45  25  45 NE18G24   30.15R
MCCOOK         CLOUDY    42  30  62 NE20G28   30.09R
LEXINGTON      CLOUDY    42  30  62 NE23      30.11R
STAPLETON        N/A     43  27  53 NE6G14      N/A
GOTHENBURG       N/A     41  26  54 N13         N/A
CALLAWAY         N/A     39  30  71 NE16        N/A  WCI  30
$$

...OBSERVATIONS IN CENTRAL LINCOLN COUNTY AREA...

CITY           SKY/WX    TMP DP  RH WIND       PRES   REMARKS
N.P. AIRPORT   CLOUDY    45  25  45 NE18G24   30.15R
N.P. DOWNTOWN    N/A     43  26  50 NE13G20     N/A
N.P. SOUTHEAST   N/A     43  25  48 NE7G20      N/A
N.P. HILLCREST   N/A     43  25  49 NE20G28     N/A
$$

...SOME OBSERVATIONS FROM AROUND THE REGION...

CITY           SKY/WX    TMP DP  RH WIND       PRES   REMARKS
DENVER         LGT SNOW  30  26  85 N17       30.18S VSB 1   WCI  18
LIMON          LGT SNOW  30  27  88 N22G31    30.11S FOG     WCI  17
ASPEN          CLOUDY    34  14  43 CALM      29.99S
LARAMIE        CLOUDY    26  17  68 E14       30.16S WCI  14
CASPER         PTSUNNY   38  24  57 E8        30.27R WCI  32
CHEYENNE       CLOUDY    29  23  78 N17       30.20R WCI  17
SCOTTSBLUFF    CLOUDY    41  26  55 N14       30.26R
GRAND ISLAND   CLOUDY    43  34  70 NE23      30.10R
OMAHA          LGT RAIN  46  36  68 NE18      30.08R
SIOUX FALLS    CLOUDY    50  31  48 NE16      30.23S
PIERRE         PTSUNNY   52  18  26 NE6       30.29F
RAPID CITY     PTSUNNY   50  18  28 E6        30.28F
BISMARCK       MOSUNNY   58  17  20 CALM      30.31S
KANSAS CITY    RAIN      47  45  93 E21G31    29.89F
HILL CITY      CLOUDY    39  36  89 N21G30    30.01F WCI  29
WICHITA        RAIN      46  45  96 NE20      29.71F
DODGE CITY     LGT RAIN  39  38  96 N24G36    29.87R FOG     WCI  28
OKLAHOMA CITY  LGT RAIN  48  47  96 N16       29.66S
DALLAS         PTSUNNY   87  69  54 S26G35    29.57R HX  91
AMARILLO       CLOUDY    37  36  96 N33G43    29.82F WCI  24
$$




USA.gov is the U.S. government's official web portal to all federal, state and local government web resources and services.